Weather History for Coolangatta Airport Aws, Queensland

Change the Weather History Date:

Sunday, November 3, 2013

  Actual Average Record
Temperature  
Mean Temperature 74 °F -  
Max Temperature 81 °F - - ()
Min Temperature 66 °F - - ()
Cooling Degree Days 8    
Growing Degree Days 24 (Base 50)    
Moisture  
Dew Point 63 °F    
Average Humidity 69    
Maximum Humidity 83    
Minimum Humidity 41    
Precipitation  
Precipitation 0.00 in - - ()
Sea Level Pressure  
Sea Level Pressure 29.97 in    
Wind  
Wind Speed 12 mph ()    
Max Wind Speed 22 mph    
Max Gust Speed -    
Visibility 6.2 miles    
Events      
T = Trace of Precipitation, MM = Missing Value Source: Averaged Metar Reports

Daily Weather History Graph

Daily Weather History Graph

Search for Another Location

Airport:

Trip Planner

Search our weather history database for the weather conditions in past years. The results will help you decide how hot, cold, wet, or windy it might be!

Date:

Astronomy

Nov. 03, 2013 Rise Set
Actual Time 4:52 AM AEST 6:06 PM AEST
Civil Twilight 4:27 AM AEST 6:31 PM AEST
Nautical Twilight 3:58 AM AEST 7:01 PM AEST
Astronomical Twilight 3:27 AM AEST 7:31 PM AEST
Moon 4:23 AM AEST (11/3) 5:49 PM AEST (11/3)
Length of Visible Light 14h 03m
Length of Day
13h 14m
Waning Crescent, 0% of the Moon is Illuminated
Nov 3
Waning Crescent
Nov 3
New
Nov 10
First Quarter
Nov 18
Full
Nov 26
Last Quarter

Hourly Weather History & Observations

Time (AEST) Temp. Heat Index Dew Point Humidity Pressure Visibility Wind Dir Wind Speed Gust Speed Precip Events Conditions
12:00 AM 68 °F - 60 °F 70% 30.09 in - NNW 9.2 mph - -  
12:00 AM 68.0 °F - 60.8 °F 78% 30.06 in 6.2 mi NNW 9.2 mph - N/A   Unknown
12:30 AM 68.0 °F - 60.8 °F 78% 30.06 in 6.2 mi NW 8.1 mph - N/A   Unknown
1:00 AM 66.2 °F - 60.8 °F 83% 30.06 in 6.2 mi NW 8.1 mph - N/A   Unknown
1:30 AM 66.2 °F - 60.8 °F 83% 30.04 in 6.2 mi NW 8.1 mph - N/A   Unknown
2:00 AM 66.2 °F - 60.8 °F 83% 30.04 in 6.2 mi NW 8.1 mph - N/A   Unknown
2:30 AM 66.2 °F - 60.8 °F 83% 30.04 in 6.2 mi NW 8.1 mph - N/A   Unknown
3:00 AM 67 °F - 60 °F 73% 30.04 in - NNW 8.1 mph - -  
3:00 AM 66.2 °F - 60.8 °F 83% 30.04 in 6.2 mi NNW 8.1 mph - N/A   Unknown
3:30 AM 66.2 °F - 60.8 °F 83% 30.04 in 6.2 mi NW 9.2 mph - N/A   Unknown
4:00 AM 66.2 °F - 60.8 °F 83% 30.04 in 6.2 mi NW 9.2 mph - N/A   Unknown
4:30 AM 66.2 °F - 59.0 °F 78% 30.04 in 6.2 mi NW 9.2 mph - N/A   Unknown
5:00 AM 66.2 °F - 59.0 °F 78% 30.04 in 6.2 mi NW 9.2 mph - N/A   Unknown
5:30 AM 68.0 °F - 59.0 °F 73% 30.04 in 6.2 mi NNW 10.4 mph - N/A   Unknown
6:00 AM 69 °F - 60 °F 64% 30.05 in - NNW 13.8 mph - -  
6:00 AM 68.0 °F - 59.0 °F 73% 30.04 in 6.2 mi NNW 13.8 mph - N/A   Unknown
6:30 AM 69.8 °F - 59.0 °F 68% 30.04 in 6.2 mi NNW 12.7 mph - N/A   Unknown
7:00 AM 71.6 °F - 59.0 °F 64% 30.04 in 6.2 mi NNW 13.8 mph - N/A   Unknown
7:30 AM 73.4 °F - 59.0 °F 61% 30.04 in 6.2 mi NNW 16.1 mph - N/A   Mostly Cloudy
8:00 AM 75.2 °F - 57.2 °F 53% 30.04 in 6.2 mi NNW 16.1 mph - N/A   Scattered Clouds
8:30 AM 77.0 °F - 59.0 °F 54% 30.04 in 6.2 mi NNW 16.1 mph - N/A   Scattered Clouds
9:00 AM 79 °F - 60 °F 41% 30.04 in - North 19.6 mph - -  
9:00 AM 78.8 °F - 59.0 °F 51% 30.04 in 6.2 mi North 19.6 mph - N/A   Unknown
9:30 AM 78.8 °F - 62.6 °F 57% 30.01 in 6.2 mi North 18.4 mph - N/A   Unknown
10:00 AM 78.8 °F - 60.8 °F 54% 30.01 in 6.2 mi North 19.6 mph - N/A   Unknown
10:30 AM 80.6 °F 82.3 °F 64.4 °F 58% 29.98 in 6.2 mi North 18.4 mph - N/A   Unknown
11:00 AM 78.8 °F - 64.4 °F 61% 29.98 in 6.2 mi North 20.7 mph - N/A   Unknown
11:30 AM 80.6 °F 82.3 °F 64.4 °F 58% 29.98 in 6.2 mi North 19.6 mph - N/A   Unknown
12:00 PM 81 °F - 64 °F 46% 29.96 in - North 20.7 mph - -  
12:00 PM 80.6 °F 82.3 °F 64.4 °F 58% 29.95 in 6.2 mi North 20.7 mph - N/A   Unknown
12:30 PM 80.6 °F 82.3 °F 64.4 °F 58% 29.92 in 6.2 mi North 20.7 mph - N/A   Unknown
1:00 PM 78.8 °F - 64.4 °F 61% 29.92 in 6.2 mi North 21.9 mph - N/A   Unknown
1:30 PM 78.8 °F - 64.4 °F 61% 29.89 in 6.2 mi North 21.9 mph - N/A   Unknown
2:00 PM 78.8 °F - 66.2 °F 65% 29.89 in 6.2 mi North 20.7 mph - N/A   Unknown
2:30 PM 78.8 °F - 66.2 °F 65% 29.89 in 6.2 mi North 19.6 mph - N/A   Unknown
3:00 PM 78 °F - 67 °F 61% 29.88 in - North 19.6 mph - -  
3:00 PM 77.0 °F - 68.0 °F 74% 29.89 in 6.2 mi North 19.6 mph - N/A   Unknown
3:30 PM 77.0 °F - 68.0 °F 74% 29.86 in 6.2 mi North 19.6 mph - N/A   Unknown
4:00 PM 75.2 °F - 66.2 °F 73% 29.86 in 6.2 mi North 19.6 mph - N/A   Unknown
4:30 PM 75.2 °F - 66.2 °F 73% 29.86 in 6.2 mi North 20.7 mph - N/A   Unknown
5:00 PM 75.2 °F - 66.2 °F 73% 29.89 in 6.2 mi North 16.1 mph - N/A   Unknown
5:30 PM 73.4 °F - 66.2 °F 78% 29.89 in 6.2 mi North 17.3 mph - N/A   Unknown
6:00 PM 73 °F - 67 °F 76% 29.89 in - North 15.0 mph - -  
6:00 PM 73.4 °F - 66.2 °F 78% 29.89 in 6.2 mi North 15.0 mph - N/A   Unknown
6:30 PM 73.4 °F - 66.2 °F 78% 29.89 in 6.2 mi North 16.1 mph - N/A   Unknown
7:00 PM 73.4 °F - 68.0 °F 83% 29.89 in 6.2 mi North 13.8 mph - N/A   Unknown
7:30 PM 75.2 °F - 60.8 °F 61% 29.92 in 6.2 mi NNW 10.4 mph - N/A   Unknown
8:00 PM 75.2 °F - 62.6 °F 65% 29.92 in 6.2 mi NNW 11.5 mph - N/A   Unknown
8:30 PM 73.4 °F - 64.4 °F 73% 29.92 in 6.2 mi NNW 15.0 mph - N/A   Unknown
9:00 PM 74 °F - 64 °F 65% 29.93 in - North 13.8 mph - -  
9:00 PM 73.4 °F - 64.4 °F 73% 29.92 in 6.2 mi North 13.8 mph - N/A   Unknown
9:30 PM 73.4 °F - 64.4 °F 73% 29.92 in 6.2 mi North 19.6 mph - N/A   Unknown
10:00 PM 73.4 °F - 64.4 °F 73% 29.92 in 6.2 mi North 17.3 mph - N/A   Unknown
10:30 PM 73.4 °F - 66.2 °F 78% 29.92 in 6.2 mi North 13.8 mph - N/A   Unknown
11:00 PM 73.4 °F - 66.2 °F 78% 29.92 in 6.2 mi NNW 10.4 mph - N/A   Unknown
11:30 PM 71.6 °F - 66.2 °F 83% 29.89 in 6.2 mi NNW 10.4 mph - N/A   Unknown